Location: Castillon
(43.0896°N, 0.2156°E)
Time: 19:59:43
(UTC+00:00)

ATLAS CENTAUR R/B - Pass Details

Date: 16 June 2021
Orbit: 472 x 671 km, 64.6° (Epoch: 13 June)

Event Time Altitude Azimuth Distance (km) Brightness Sun altitude
Rises 21:37:37 0° 333° (NNW) 2,778 6.7 -15.9°
Reaches altitude 10° 21:40:00 10° 344° (NNW) 1,913 5.3 -16.1°
Maximum altitude 21:43:54 32° 48° (NE) 1,059 2.8 -16.5°
Enters shadow 21:46:25 19° 99° (E) 1,504 3.2 -16.8°
